Home > Weather > Inglewood > Past weeks

Flag for USA Weather for the Past 2 Weeks in Inglewood, California, USA

Now
57 °F

Overcast.


Feels Like: 57 °F
Forecast: 55 / 67 °F
Wind: 3 mph from North

Location: Hawthorne Municipal Airport

Current Time: Apr 30, 2016 at 4:20:31 AM

Latest Report: Apr 30, 2016 at 2:53 AM


Visibility: 10 mi

Pressure: 29.85 "Hg

Humidity: 78%

Dew Point: 50 °F

Location of InglewoodLocation

Historic Weather in Inglewood — Graph

°F

Inglewood Temperature Yesterday

Maximum temperature yesterday: 66 °F (at 12:53 PM)
Minimum temperature yesterday: 56 °F (at 11:53 PM)
Average temperature yesterday: 60 °F

High & Low Weather Summary for the Past Weeks

 TemperatureHumidityPressure
High85 °F (Apr 17, 11:53 AM)87% (Apr 22, 4:53 AM)30.06 "Hg (Apr 22, 4:53 AM)
Low53 °F (Apr 26, 3:53 AM)9% (Apr 16, 11:53 AM)29.72 "Hg (Apr 27, 8:53 PM)
Average66 °F51%29.93 "Hg
* Reported Apr 15 2:53 AM — Apr 30 2:53 AM, Inglewood, Weather by CustomWeather, © 2016

Note: Actual official high and low records may vary slightly from our data, if they occured in-between our weather recording intervals... More about our weather records

Advertising

Inglewood Weather History for the Previous 24 Hours

Scroll right to see more
 ConditionsComfort  
Time TempWeatherWind HumidityBarometerVisibility
2:53 AM
Sat, Apr 30
57 °FOvercast.3 mph78%29.85 "Hg10 mi
1:53 AM56 °FMostly cloudy.3 mph81%29.87 "Hg10 mi
12:53 AM56 °FClear.3 mph81%29.88 "Hg10 mi
11:53 PM
Fri, Apr 29
56 °FPassing clouds.6 mph81%29.90 "Hg10 mi
10:53 PM57 °FClear.7 mph81%29.90 "Hg10 mi
9:53 PM58 °FClear.5 mph75%29.92 "Hg10 mi
8:53 PM58 °FClear.3 mph75%29.92 "Hg10 mi
7:53 PM59 °FSunny.8 mph72%29.92 "Hg10 mi
6:53 PM60 °FSunny.9 mph75%29.92 "Hg10 mi
6:00 PM61 °FPassing clouds.12 mph70%29.94 "Hg10 mi
4:53 PM63 °FPartly sunny.12 mph65%29.95 "Hg10 mi
3:53 PM64 °FPartly sunny.14 mph65%29.97 "Hg10 mi
2:53 PM65 °FSunny.14 mph56%29.99 "Hg10 mi
1:53 PM66 °FSunny.10 mph52%30.00 "Hg10 mi
12:53 PM66 °FPassing clouds.13 mph52%30.01 "Hg10 mi
11:53 AM65 °FPartly sunny.12 mph56%30.04 "Hg10 mi
10:53 AM64 °FScattered clouds.N/A56%30.04 "Hg10 mi
9:53 AM62 °FPassing clouds.6 mph58%30.04 "Hg10 mi
8:53 AM61 °FPartly sunny.6 mph60%30.03 "Hg10 mi
7:53 AM60 °FOvercast.7 mph65%30.02 "Hg10 mi
6:53 AM58 °FPassing clouds.7 mph72%30.00 "Hg10 mi
5:53 AM58 °FOvercast.5 mph72%29.99 "Hg10 mi
4:53 AM58 °FPassing clouds.No wind72%29.99 "Hg10 mi
Weather by CustomWeather, © 2016

See weather overviewHow to use our weather pages